User: anonymous   Login
Location: Unspecified
(0.0000°N, 0.0000°E)
Time: 05:12:47
(UTC+00:00)
Language:

Cosmos 1589 - Orbit

View from above orbital plane
View from above orbital plane
View from above satellite
View from above satellite

Ground track
Ground track

The orbit data is extracted from the following two-line orbital elements,

1 15171U 84084A   18018.61887921 +.00000030 +00000-0 +14907-3 0  9996
2 15171 082.5953 238.6705 0005458 255.8220 115.3251 12.42199442516497
Epoch (UTC): 18 January 2018 14:51:11
Eccentricity: 0.0005458
inclination: 82.5953°
perigee height: 1493 km
apogee height: 1501 km
right ascension of ascending node: 238.6705°
argument of perigee: 255.8220°
revolutions per day: 12.42199442
mean anomaly at epoch: 115.3251°
orbit number at epoch: 51649

The dashed part of the orbit path shows where the satellite is in the earth's shadow,  

DLR